Antigo, WI

12:57 PM CDT on July 27, 2016 (GMT -0500)
Langlade County

Weather History for KAIG - May, 2013

Change the Weather History Date:

Tuesday, May 14, 2013

  Actual Average Record
Temperature  
Mean Temperature 56 °F -  
Max Temperature 74 °F 63 °F 84 °F (1962)
Min Temperature 38 °F 39 °F 28 °F (1973)
Degree Days  
Heating Degree Days 9    
Growing Degree Days 6 (Base 50)    
Moisture  
Dew Point 42 °F    
Average Humidity 60    
Maximum Humidity 85    
Minimum Humidity 37    
Precipitation  
Precipitation 0.00 in - - ()
Sea Level Pressure  
Sea Level Pressure 29.69 in    
Wind  
Wind Speed 8 mph (SSE)    
Max Wind Speed 17 mph    
Max Gust Speed 18 mph    
Visibility 10 miles    
Events      
Averages and records for this station are not official NWS values.
T = Trace of Precipitation, MM = Missing Value Source: NWS Daily Summary

Daily Weather History Graph

Daily Weather History Graph

Search for Another Location

Airport or City:

Trip Planner

Search our weather history database for the weather conditions in past years. The results will help you decide how hot, cold, wet, or windy it might be!

Date:

Astronomy

May. 14, 2013 Rise Set
Actual Time 5:27 AM CDT 8:18 PM CDT
Civil Twilight 4:53 AM CDT 8:52 PM CDT
Nautical Twilight 4:10 AM CDT 9:36 PM CDT
Astronomical Twilight 3:19 AM CDT 10:28 PM CDT
Moon 9:07 AM CDT (5/14) No Moon Set
Length of Visible Light 15h 59m
Length of Day
14h 50m
Waxing Crescent, 19% of the Moon is Illuminated
May 14
Waxing Crescent
May 17
First Quarter
May 24
Full
May 31
Last Quarter
Jun 8
New

Hourly Weather History & Observations

Time (CDT) Temp. Windchill Dew Point Humidity Pressure Visibility Wind Dir Wind Speed Gust Speed Precip Events Conditions
12:15 AM 43.3 °F 37.2 °F 33.8 °F 69% 29.85 in 10.0 mi SSE 11.5 mph - N/A   Mostly Cloudy
12:35 AM 43.2 °F 36.6 °F 33.8 °F 70% 29.83 in 10.0 mi SSE 12.7 mph - N/A   Mostly Cloudy
12:55 AM 43.3 °F 36.5 °F 33.4 °F 68% 29.82 in 10.0 mi SSE 13.8 mph 18.4 mph N/A   Overcast
1:15 AM 43.2 °F 37.4 °F 33.6 °F 69% 29.81 in 10.0 mi SSE 10.4 mph - N/A   Overcast
1:35 AM 43.0 °F 37.2 °F 33.6 °F 70% 29.80 in 10.0 mi SSE 10.4 mph - N/A   Overcast
1:55 AM 43.2 °F 35.9 °F 33.4 °F 69% 29.78 in 10.0 mi SSE 15.0 mph 18.4 mph N/A   Overcast
2:15 AM 43.5 °F 36.7 °F 33.3 °F 67% 29.76 in 10.0 mi SSE 13.8 mph - N/A   Overcast
2:35 AM 42.8 °F 37.0 °F 33.8 °F 70% 29.76 in 10.0 mi SSE 10.4 mph - N/A   Overcast
2:55 AM 41.7 °F 36.7 °F 33.3 °F 72% 29.76 in 10.0 mi SSE 8.1 mph - N/A   Scattered Clouds
3:15 AM 41.4 °F 36.2 °F 33.3 °F 73% 29.75 in 10.0 mi SSE 8.1 mph - N/A   Scattered Clouds
3:35 AM 41.0 °F 36.4 °F 33.3 °F 74% 29.74 in 10.0 mi SSE 6.9 mph - N/A   Scattered Clouds
3:55 AM 40.3 °F 37.1 °F 33.1 °F 75% 29.74 in 10.0 mi SSE 4.6 mph - N/A   Scattered Clouds
4:15 AM 40.1 °F 35.3 °F 33.1 °F 76% 29.73 in 10.0 mi SE 6.9 mph - N/A   Clear
4:35 AM 39.2 °F 34.2 °F 33.1 °F 79% 29.74 in 10.0 mi SE 6.9 mph - N/A   Clear
4:55 AM 39.2 °F 35.0 °F 33.1 °F 79% 29.73 in 10.0 mi SE 5.8 mph - N/A   Clear
5:15 AM 39.4 °F 36.1 °F 32.9 °F 78% 29.73 in 10.0 mi SE 4.6 mph - N/A   Clear
5:35 AM 38.8 °F 35.4 °F 32.9 °F 79% 29.72 in 10.0 mi SE 4.6 mph - N/A   Clear
5:55 AM 39.6 °F - 32.9 °F 77% 29.72 in 10.0 mi Calm Calm - N/A   Clear
6:15 AM 38.5 °F - 33.3 °F 81% 29.72 in 10.0 mi Calm Calm - N/A   Clear
6:35 AM 41.2 °F - 34.7 °F 78% 29.73 in 10.0 mi Calm Calm - N/A   Clear
6:55 AM 42.8 °F - 35.8 °F 76% 29.72 in 10.0 mi Calm Calm - N/A   Clear
7:15 AM 44.4 °F 42.9 °F 34.9 °F 69% 29.73 in 10.0 mi East 3.5 mph - N/A   Clear
7:35 AM 45.9 °F - 34.9 °F 66% 29.73 in 10.0 mi Calm Calm - N/A   Clear
7:55 AM 47.8 °F - 35.8 °F 63% 29.72 in 10.0 mi Calm Calm - N/A   Clear
8:15 AM 48.4 °F - 36.3 °F 63% 29.72 in 10.0 mi Calm Calm - N/A   Clear
8:35 AM 51.1 °F - 37.2 °F 59% 29.71 in 10.0 mi Calm Calm - N/A   Clear
8:55 AM 53.8 °F - 38.8 °F 57% 29.72 in 10.0 mi West 3.5 mph - N/A   Clear
9:15 AM 55.8 °F - 39.9 °F 55% 29.73 in 10.0 mi WNW 4.6 mph - N/A   Clear
9:35 AM 56.1 °F - 41.5 °F 58% 29.73 in 10.0 mi NW 5.8 mph - N/A   Clear
9:55 AM 58.6 °F - 41.9 °F 54% 29.73 in 10.0 mi North 6.9 mph - N/A   Clear
10:15 AM 59.5 °F - 43.3 °F 55% 29.73 in 10.0 mi NNE 4.6 mph - N/A   Clear
10:35 AM 60.8 °F - 43.5 °F 53% 29.73 in 10.0 mi NNE 4.6 mph - N/A   Clear
10:55 AM 62.4 °F - 43.9 °F 51% 29.74 in 10.0 mi Calm Calm - N/A   Clear
11:15 AM 64.0 °F - 44.4 °F 49% 29.75 in 10.0 mi Calm Calm - N/A   Clear
11:35 AM 66.4 °F - 45.7 °F 47% 29.78 in 10.0 mi NNW 5.8 mph - N/A   Clear
11:55 AM 66.6 °F - 45.0 °F 46% 29.79 in 10.0 mi North 3.5 mph - N/A   Scattered Clouds
12:15 PM 68.9 °F - 46.0 °F 44% 29.78 in 10.0 mi Calm Calm - N/A   Scattered Clouds
12:35 PM 68.7 °F - 46.4 °F 45% 29.78 in 10.0 mi Calm Calm - N/A   Clear
12:55 PM 72.3 °F - 47.3 °F 41% 29.79 in 10.0 mi NW 5.8 mph - N/A   Clear
1:15 PM 72.5 °F - 45.9 °F 39% 29.78 in 10.0 mi SW 3.5 mph - N/A   Clear
1:35 PM 73.6 °F - 46.2 °F 38% 29.75 in 10.0 mi South 3.5 mph - N/A   Clear
1:55 PM 73.2 °F - 47.7 °F 40% 29.73 in 10.0 mi South 6.9 mph - N/A   Clear
2:15 PM 74.5 °F - 48.7 °F 40% 29.71 in 10.0 mi SSE 9.2 mph - N/A   Clear
2:35 PM 73.4 °F - 47.1 °F 39% 29.69 in 10.0 mi SSE 9.2 mph - N/A   Clear
2:55 PM 74.8 °F - 46.6 °F 37% 29.68 in 10.0 mi SSE 12.7 mph - N/A   Clear
3:15 PM 73.2 °F - 45.9 °F 38% 29.67 in 10.0 mi SSE 10.4 mph - N/A   Clear
3:35 PM 72.1 °F - 48.0 °F 42% 29.65 in 10.0 mi South 11.5 mph - N/A   Clear
3:55 PM 71.6 °F - 48.0 °F 43% 29.65 in 10.0 mi SSE 12.7 mph - N/A   Clear
4:15 PM 70.9 °F - 47.5 °F 43% 29.65 in 10.0 mi SSE 13.8 mph - N/A   Clear
4:35 PM 72.5 °F - 48.0 °F 42% 29.64 in 10.0 mi SSE 12.7 mph - N/A   Clear
4:55 PM 72.5 °F - 47.7 °F 41% 29.64 in 10.0 mi SSE 16.1 mph - N/A   Clear
5:15 PM 71.6 °F - 48.4 °F 44% 29.63 in 10.0 mi SSE 13.8 mph - N/A   Clear
5:35 PM 70.2 °F - 49.1 °F 47% 29.62 in 10.0 mi South 13.8 mph - N/A   Clear
5:55 PM 69.8 °F - 48.7 °F 47% 29.62 in 10.0 mi SSE 17.3 mph - N/A   Clear
6:15 PM 69.8 °F - 48.9 °F 47% 29.60 in 10.0 mi SSE 13.8 mph 18.4 mph N/A   Clear
6:35 PM 69.1 °F - 49.1 °F 49% 29.59 in 10.0 mi SSE 11.5 mph - N/A   Clear
6:55 PM 68.4 °F - 49.8 °F 51% 29.59 in 10.0 mi SE 12.7 mph - N/A   Clear
7:15 PM 67.5 °F - 49.6 °F 53% 29.59 in 10.0 mi SSE 9.2 mph - N/A   Clear
7:35 PM 65.7 °F - 50.4 °F 58% 29.59 in 10.0 mi SE 9.2 mph - N/A   Scattered Clouds
7:55 PM 64.2 °F - 50.4 °F 61% 29.58 in 10.0 mi SE 10.4 mph - N/A   Mostly Cloudy
8:15 PM 63.3 °F - 50.0 °F 62% 29.57 in 10.0 mi SE 15.0 mph - N/A   Mostly Cloudy
8:35 PM 61.5 °F - 49.5 °F 65% 29.56 in 10.0 mi SE 17.3 mph - N/A   Scattered Clouds
8:55 PM 59.9 °F - 49.1 °F 67% 29.55 in 10.0 mi SE 8.1 mph - N/A   Clear
9:15 PM 58.6 °F - 49.1 °F 71% 29.54 in 10.0 mi SE 11.5 mph - N/A   Clear
9:35 PM 57.7 °F - 49.1 °F 73% 29.54 in 10.0 mi SSE 11.5 mph - N/A   Clear
9:55 PM 57.2 °F - 49.1 °F 74% 29.52 in 10.0 mi SSE 11.5 mph - N/A   Clear
10:15 PM 56.3 °F - 49.1 °F 77% 29.52 in 10.0 mi SSE 9.2 mph - N/A   Clear
10:35 PM 55.6 °F - 48.9 °F 78% 29.50 in 10.0 mi SSE 11.5 mph - N/A   Clear
10:55 PM 55.4 °F - 48.4 °F 77% 29.50 in 10.0 mi SSE 10.4 mph - N/A   Clear
11:15 PM 54.1 °F - 48.2 °F 80% 29.50 in 10.0 mi South 9.2 mph - N/A   Clear
11:35 PM 52.2 °F - 47.7 °F 85% 29.52 in 10.0 mi WSW 6.9 mph - N/A   Clear
11:55 PM 53.4 °F - 48.2 °F 82% 29.53 in 10.0 mi WNW 6.9 mph - N/A   Clear